TimeEDT,TemperatureF,Dew PointF,Humidity,Sea Level PressureIn,VisibilityMPH,Wind Direction,Wind SpeedMPH,Gust SpeedMPH,PrecipitationIn,Events,Conditions,WindDirDegrees,DateUTC
12:54 AM,59.0,55.0,87,29.80,-9999.0,North,-9999.0,-,N/A,,Unknown,0,2013-05-23 04:54:00
1:54 AM,57.9,54.0,87,29.77,-9999.0,North,-9999.0,-,N/A,,Unknown,0,2013-05-23 05:54:00
2:54 AM,57.0,55.9,96,29.80,-9999.0,North,-9999.0,-,0.17,,Unknown,0,2013-05-23 06:54:00
3:54 AM,59.0,57.0,93,29.77,-9999.0,North,-9999.0,-,0.07,,Unknown,0,2013-05-23 07:54:00
4:54 AM,57.9,57.0,97,29.78,-9999.0,North,-9999.0,-,N/A,,Unknown,0,2013-05-23 08:54:00
5:54 AM,57.0,55.9,96,29.78,-9999.0,North,-9999.0,-,N/A,,Unknown,0,2013-05-23 09:54:00
6:54 AM,57.9,55.9,93,29.80,-9999.0,North,-9999.0,-,N/A,,Unknown,0,2013-05-23 10:54:00
7:54 AM,57.9,55.9,93,29.80,-9999.0,North,-9999.0,-,N/A,,Unknown,0,2013-05-23 11:54:00
8:54 AM,60.1,55.9,86,29.79,-9999.0,North,-9999.0,-,N/A,,Unknown,0,2013-05-23 12:54:00
9:54 AM,63.0,57.9,84,29.78,-9999.0,North,-9999.0,-,N/A,,Unknown,0,2013-05-23 13:54:00
10:54 AM,64.9,59.0,81,29.78,-9999.0,North,-9999.0,-,N/A,,Unknown,0,2013-05-23 14:54:00
11:54 AM,69.1,61.0,75,29.76,-9999.0,North,-9999.0,-,N/A,,Unknown,0,2013-05-23 15:54:00
12:54 PM,70.0,62.1,76,29.75,-9999.0,North,-9999.0,-,N/A,,Unknown,0,2013-05-23 16:54:00
1:54 PM,72.0,63.0,73,29.73,-9999.0,North,-9999.0,-,N/A,,Unknown,0,2013-05-23 17:54:00
2:54 PM,73.9,64.0,71,29.70,-9999.0,North,-9999.0,-,N/A,,Unknown,0,2013-05-23 18:54:00
3:54 PM,73.0,64.9,76,29.70,-9999.0,North,-9999.0,-,N/A,,Unknown,0,2013-05-23 19:54:00
4:54 PM,73.9,64.9,73,29.69,-9999.0,North,-9999.0,-,N/A,,Unknown,0,2013-05-23 20:54:00
5:54 PM,73.0,64.0,73,29.69,-9999.0,North,-9999.0,-,N/A,,Unknown,0,2013-05-23 21:54:00
6:54 PM,71.1,63.0,75,29.70,-9999.0,North,-9999.0,-,N/A,,Unknown,0,2013-05-23 22:54:00
7:54 PM,69.1,64.0,84,29.72,-9999.0,North,-9999.0,-,0.01,,Unknown,0,2013-05-23 23:54:00
8:54 PM,66.0,64.0,93,29.72,-9999.0,North,-9999.0,-,0.08,,Unknown,0,2013-05-24 00:54:00
9:54 PM,66.0,64.0,93,29.72,-9999.0,North,-9999.0,-,0.03,,Unknown,0,2013-05-24 01:54:00
10:54 PM,66.0,63.0,90,29.70,-9999.0,North,-9999.0,-,N/A,,Unknown,0,2013-05-24 02:54:00
11:54 PM,64.9,63.0,93,29.70,-9999.0,North,-9999.0,-,0.18,,Unknown,0,2013-05-24 03:54:00